Location: Burbank
(38.7788°N, 114.0429°W)
Time: 05:24:18
(UTC+00:00)

Transit 2A - All Passes

Search period start: 10 May 2026 00:00
Search period end: 20 May 2026 00:00
Orbit: 593 x 950 km, 66.7° (Epoch: 9 May)

Date Brightness Start Highest point End Pass type
(mag) Time Alt. Az. Time Alt. Az. Time Alt. Az.
10 May - 01:38:18 10° WSW 01:43:28 27° NW 01:48:25 10° N daylight
10 May - 08:42:48 10° N 08:47:05 28° NE 08:51:02 10° ESE visible
10 May - 10:25:51 10° NW 10:30:02 30° WSW 10:33:55 10° S visible
10 May - 23:18:13 10° S 23:23:50 36° ESE 23:29:13 10° NE daylight
11 May - 01:01:07 10° WSW 01:06:52 38° NW 01:12:19 10° NNE daylight
11 May - 08:06:51 10° N 08:10:24 19° NE 08:13:43 10° E visible
11 May - 09:49:05 10° NW 09:53:47 50° WSW 09:58:05 10° S visible
11 May - 22:42:45 10° SSE 22:47:34 24° ESE 22:52:15 10° NE daylight
12 May - 00:24:12 10° SW 00:30:19 55° WNW 00:36:06 10° NNE daylight
12 May - 02:12:52 10° NW 02:14:33 11° NW 02:16:12 10° NNW daylight
12 May - 07:31:16 10° NNE 07:33:37 13° NE 07:35:53 10° ENE visible
12 May - 09:12:32 10° NNW 09:17:26 85° WSW 09:21:54 10° SSE visible
12 May - 22:07:55 10° SE 22:11:22 15° ESE 22:14:46 10° ENE daylight
12 May - 23:47:35 10° SSW 23:53:51 81° WNW 23:59:46 10° NNE daylight
13 May - 01:34:11 10° W 01:37:43 16° NW 01:41:08 10° N daylight
13 May - 08:36:09 10° NNW 08:41:00 59° ENE 08:45:24 10° SE visible
13 May - 10:21:15 10° WNW 10:23:16 13° WSW 10:25:12 10° SW visible
13 May - 23:11:14 10° SSW 23:17:26 70° ESE 23:23:19 10° NNE daylight
14 May - 00:56:21 10° W 01:00:58 22° NW 01:05:23 10° N daylight
14 May - 07:59:55 10° NNW 08:04:28 37° NE 08:08:39 10° ESE visible
14 May - 09:43:34 10° WNW 09:47:08 21° WSW 09:50:29 10° SSW visible
14 May - 22:35:09 10° S 22:41:04 47° ESE 22:46:43 10° NE daylight
15 May - 00:18:56 10° WSW 00:24:18 30° NW 00:29:23 10° N daylight
15 May - 07:23:50 10° N 07:27:51 24° NE 07:31:34 10° ESE visible
15 May - 09:06:36 10° NW 09:10:56 35° WSW 09:14:57 10° S visible
15 May - 21:59:24 10° S 22:04:46 31° ESE 22:09:56 10° NE daylight
15 May - 23:41:51 10° SW 23:47:42 43° NW 23:53:14 10° NNE daylight
16 May - 06:47:59 10° N 06:51:07 17° NE 06:54:06 10° E visible
16 May - 08:29:55 10° NW 08:34:39 60° WSW 08:38:59 10° SSE visible
16 May - 21:24:06 10° SSE 21:28:32 21° ESE 21:32:49 10° ENE daylight
16 May - 23:05:03 10° SW 23:11:12 63° WNW 23:16:59 10° NNE daylight
17 May - 00:52:56 10° WNW 00:55:17 12° NW 00:57:35 10° NNW daylight
17 May - 06:12:43 10° NNE 06:14:19 11° NE 06:15:53 10° ENE visible
17 May - 07:53:25 10° NNW 07:58:16 82° ENE 08:02:42 10° SSE visible
17 May - 20:49:39 10° SE 20:52:22 13° ESE 20:55:00 10° ENE daylight
17 May - 22:28:30 10° SSW 22:34:44 90° ESE 22:40:37 10° NNE daylight
18 May - 00:14:36 10° W 00:18:28 17° NW 00:22:12 10° N daylight
18 May - 07:17:05 10° NNW 07:21:48 50° ENE 07:26:07 10° SE visible
18 May - 09:01:35 10° WNW 09:04:12 15° WSW 09:06:43 10° SW visible
18 May - 21:52:14 10° SSW 21:58:20 61° ESE 22:04:07 10° NE daylight
18 May - 23:36:55 10° WSW 23:41:46 24° NW 23:46:21 10° N daylight
19 May - 06:40:54 10° N 06:45:14 31° NE 06:49:15 10° ESE visible
19 May - 08:24:13 10° NW 08:28:02 25° WSW 08:31:38 10° SSW visible
19 May - 21:16:15 10° S 21:22:00 41° ESE 21:27:28 10° NE daylight
19 May - 22:59:36 10° WSW 23:05:07 34° NW 23:10:19 10° N daylight
